ZHANGHENG 1-01 (CSES-1)

Last updated on Thu Jul 03 2025 00:03:32 GMT+0000 (Coordinated Universal Time)

1 43194U 18015C 25183.56662120 .00006910 00000+0 31791-3 0 9992 2 43194 97.6515 338.0549 0015093 77.3698 282.9223 15.20566082411500
UTC large
Height (km)
Speed (km/s)
/
Latitude / Longitude
Inclination (degrees)
Orbital Period (minutes)
Azimuth
Elevation
Range (km)
Doppler Factor

Next 0 passes for location: London (51.5072 / 0.1276)

Sorry there are no passes over London.